TimeCST,TemperatureF,Dew PointF,Humidity,Sea Level PressureIn,VisibilityMPH,Wind Direction,Wind SpeedMPH,Gust SpeedMPH,PrecipitationIn,Events,Conditions,WindDirDegrees,DateUTC
12:56 AM,57.9,48.0,70,30.20,10.0,ENE,9.2,-,N/A,,Clear,70,2013-11-05 06:56:00
1:56 AM,55.9,46.9,72,30.20,10.0,ENE,10.4,-,N/A,,Clear,70,2013-11-05 07:56:00
2:56 AM,57.9,46.0,65,30.20,10.0,ENE,12.7,-,N/A,,Overcast,70,2013-11-05 08:56:00
3:56 AM,55.9,43.0,62,30.21,10.0,ENE,11.5,-,N/A,,Partly Cloudy,60,2013-11-05 09:56:00
4:56 AM,54.0,42.1,64,30.21,10.0,ENE,11.5,-,N/A,,Clear,70,2013-11-05 10:56:00
5:56 AM,53.1,42.1,66,30.23,10.0,ENE,8.1,-,N/A,,Scattered Clouds,70,2013-11-05 11:56:00
6:56 AM,54.0,42.1,64,30.26,10.0,SE,5.8,-,N/A,,Mostly Cloudy,130,2013-11-05 12:56:00
7:56 AM,59.0,44.1,58,30.25,10.0,ENE,13.8,-,N/A,,Scattered Clouds,70,2013-11-05 13:56:00
8:56 AM,63.0,46.9,56,30.27,10.0,East,12.7,-,N/A,,Scattered Clouds,100,2013-11-05 14:56:00
9:56 AM,66.9,51.1,57,30.26,10.0,East,12.7,-,N/A,,Scattered Clouds,90,2013-11-05 15:56:00
10:56 AM,70.0,53.1,55,30.23,10.0,ENE,9.2,-,N/A,,Scattered Clouds,60,2013-11-05 16:56:00
11:56 AM,73.0,55.0,53,30.20,10.0,East,10.4,-,N/A,,Scattered Clouds,80,2013-11-05 17:56:00
12:56 PM,75.9,55.9,50,30.17,10.0,East,6.9,-,N/A,,Scattered Clouds,80,2013-11-05 18:56:00
1:56 PM,75.9,55.9,50,30.16,10.0,East,8.1,16.1,N/A,,Scattered Clouds,90,2013-11-05 19:56:00
2:56 PM,75.0,55.0,50,30.15,10.0,NE,9.2,-,N/A,,Mostly Cloudy,50,2013-11-05 20:56:00
3:56 PM,73.0,55.0,53,30.15,10.0,East,8.1,-,N/A,,Scattered Clouds,80,2013-11-05 21:56:00
4:56 PM,69.1,54.0,58,30.15,10.0,ENE,5.8,-,N/A,,Mostly Cloudy,60,2013-11-05 22:56:00
5:56 PM,66.9,54.0,63,30.16,10.0,ENE,6.9,-,N/A,,Mostly Cloudy,60,2013-11-05 23:56:00
6:56 PM,64.9,53.1,65,30.17,10.0,ENE,6.9,-,N/A,,Mostly Cloudy,60,2013-11-06 00:56:00
7:56 PM,64.0,52.0,65,30.18,10.0,ENE,6.9,-,N/A,,Mostly Cloudy,70,2013-11-06 01:56:00
8:56 PM,62.1,51.1,67,30.19,10.0,ENE,5.8,-,N/A,,Scattered Clouds,60,2013-11-06 02:56:00
9:56 PM,60.1,48.9,67,30.18,10.0,ENE,6.9,-,N/A,,Partly Cloudy,60,2013-11-06 03:56:00
10:56 PM,60.1,48.0,64,30.16,10.0,ENE,8.1,-,N/A,,Partly Cloudy,70,2013-11-06 04:56:00
11:56 PM,60.1,48.0,64,30.14,10.0,ENE,10.4,-,N/A,,Clear,70,2013-11-06 05:56:00